TimeCST,TemperatureF,Dew PointF,Humidity,Sea Level PressureIn,VisibilityMPH,Wind Direction,Wind SpeedMPH,Gust SpeedMPH,PrecipitationIn,Events,Conditions,WindDirDegrees,DateUTC
12:53 AM,28.0,16.0,61,30.28,10.0,NNW,9.2,-,N/A,,Clear,330,2013-02-20 06:53:00
1:53 AM,26.1,14.0,60,30.28,10.0,Variable,4.6,-,N/A,,Clear,0,2013-02-20 07:53:00
2:53 AM,26.1,14.0,60,30.29,10.0,NNW,3.5,-,N/A,,Clear,330,2013-02-20 08:53:00
3:53 AM,25.0,14.0,63,30.29,10.0,NW,6.9,-,N/A,,Clear,320,2013-02-20 09:53:00
4:53 AM,25.0,12.9,60,30.30,10.0,NW,4.6,-,N/A,,Clear,320,2013-02-20 10:53:00
5:53 AM,24.1,12.0,60,30.31,10.0,Calm,Calm,-,N/A,,Clear,0,2013-02-20 11:53:00
6:53 AM,23.0,12.9,65,30.33,10.0,WNW,3.5,-,N/A,,Clear,290,2013-02-20 12:53:00
7:53 AM,27.0,12.9,56,30.34,10.0,Variable,4.6,-,N/A,,Clear,0,2013-02-20 13:53:00
8:53 AM,28.0,12.0,51,30.36,10.0,North,6.9,-,N/A,,Clear,10,2013-02-20 14:53:00
9:53 AM,30.9,10.9,43,30.36,10.0,Calm,Calm,-,N/A,,Clear,0,2013-02-20 15:53:00
10:53 AM,32.0,12.0,44,30.37,10.0,Variable,5.8,-,N/A,,Clear,0,2013-02-20 16:53:00
11:53 AM,34.0,12.0,40,30.34,10.0,North,6.9,-,N/A,,Clear,10,2013-02-20 17:53:00
12:53 PM,33.1,14.0,46,30.32,10.0,Calm,Calm,-,N/A,,Clear,0,2013-02-20 18:53:00
1:53 PM,34.0,12.9,42,30.33,10.0,Variable,5.8,-,N/A,,Clear,0,2013-02-20 19:53:00
2:53 PM,33.1,12.9,43,30.32,10.0,WNW,5.8,-,N/A,,Clear,300,2013-02-20 20:53:00
3:53 PM,34.0,15.1,46,30.29,10.0,Variable,3.5,-,N/A,,Clear,0,2013-02-20 21:53:00
4:53 PM,33.1,15.1,48,30.30,10.0,North,4.6,-,N/A,,Clear,360,2013-02-20 22:53:00
5:53 PM,30.9,15.1,52,30.29,10.0,Calm,Calm,-,N/A,,Clear,0,2013-02-20 23:53:00
6:53 PM,30.0,16.0,56,30.30,10.0,NNW,3.5,-,N/A,,Clear,340,2013-02-21 00:53:00
7:53 PM,28.9,16.0,58,30.30,10.0,North,3.5,-,N/A,,Clear,360,2013-02-21 01:53:00
8:53 PM,28.0,16.0,61,30.30,10.0,Calm,Calm,-,N/A,,Partly Cloudy,0,2013-02-21 02:53:00
10:53 PM,27.0,16.0,63,30.30,10.0,Calm,Calm,-,N/A,,Clear,0,2013-02-21 04:53:00
11:53 PM,27.0,16.0,63,30.30,10.0,Calm,Calm,-,N/A,,Clear,0,2013-02-21 05:53:00